Regional Weather Roundup
Issued by NWS

Home | Current Version | Previous Version | Graphics & Text | Print | Product List | Glossary On
Versions: 1 2 3 4 5 6 7 8 9 10 11 12 13 14 15 16 17 18 19 20 21 22 23 24 25 26 27
000
ASUS45 KTFX 262010
RWRMT
MONTANA REGIONAL WEATHER ROUNDUP
NATIONAL WEATHER SERVICE GREAT FALLS MT
200 PM MDT THU MAY 26 2016

NOTE: "FAIR" INDICATES FEW OR NO CLOUDS BELOW 12000 FEET WITH NO
SIGNIFICANT WEATHER AND/OR OBSTRUCTIONS TO VISIBILITY.

MTZ001>007-043-262100-
WEST OF THE DIVIDE

CITY           SKY/WX    TMP DP  RH WIND       PRES   REMARKS
KALISPELL      PTSUNNY   61  51  70 S10       29.93F
MISSOULA         N/A     65  46  50 CALM      29.97F
BUTTE          PTSUNNY   60  36  40 W8        30.01F
MULLAN PASS    LGT RAIN  43  41  93 NW3       30.06F
ANACONDA         N/A     61  39  44 N9        29.99F
DEER LODGE       N/A     61  39  44 NW8       29.99F
EUREKA           N/A     63  45  51 NE6       29.92F
HAMILTON         N/A     64  39  39 W3        29.97F
LIBBY            N/A     66  45  45 CALM      29.94F
$$

MTZ008-052>055-262100-
SOUTHWEST MONTANA

CITY           SKY/WX    TMP DP  RH WIND       PRES   REMARKS
BOZEMAN          N/A     61  46  57 SE7       29.99S
DILLON           N/A     64  34  32 SW8       29.98F
ENNIS          PTSUNNY   61  39  44 N22       30.04F
$$

MTZ009-010-012-014-046-048-049-054-262100-
EAST SLOPES AND CENTRAL MONTANA

CITY           SKY/WX    TMP DP  RH WIND       PRES   REMARKS
CUT BANK         N/A     61  43  51 W3        29.93S
GREAT FALLS      N/A     62  48  60 CALM      29.94F
MALMSTROM AFB    N/A     63  47  56 W9        29.93F
HELENA         PTSUNNY   65  40  39 SW8       29.93F
CHOTEAU          N/A     63  46  55 E7        29.93F
$$

MTZ011-013-016-021-045-047-050-051-262100-
NORTH CENTRAL MONTANA

CITY           SKY/WX    TMP DP  RH WIND       PRES   REMARKS
LEWISTOWN      CLOUDY    61  43  51 N14G22    29.93F
N BAR RANCH    PTSUNNY   57  41  54 NW20G26   29.94F
CHINOOK          N/A     63  48  59 N6        29.92S
$$

MTZ017>020-022>027-061-062-262100-
NORTHEAST MONTANA

CITY           SKY/WX    TMP DP  RH WIND       PRES   REMARKS
GLASGOW        CLOUDY    56  53  90 NW16      29.83S
JORDAN           N/A     60  45  57 NW17G24   29.86R
SIDNEY         CLOUDY    64  48  56 W14       29.79F
WOLF POINT     PTSUNNY   62  51  67 W10       29.82S
$$

MTZ028>42-056>058-262100-
SOUTHCENTRAL AND SOUTHEAST MONTANA

CITY           SKY/WX    TMP DP  RH WIND       PRES   REMARKS
BAKER          CLOUDY    56  45  66 W13       29.87R
BILLINGS       PTSUNNY   63  40  42 W21G31    29.92R
LIVINGSTON     CLOUDY    55  45  68 S7        29.99F
MILES CITY     TSTM      57  46  66 W16G26    29.86R
FORSYTH          N/A     63  45  51 W9        29.86F
$$

REGIONAL REPORTS...DAKOTAS

CITY           SKY/WX    TMP DP  RH WIND       PRES   REMARKS
WILLISTON      PTSUNNY   66  48  52 VRB6      29.79F
MINOT          PTSUNNY   68  54  60 N6        29.79S
DICKINSON        N/A     63  40  42 NW8G18    29.81F
BEACH          PTSUNNY   59  41  51 NW20G29   29.87S
CROSBY         LGT RAIN  55  55 100 E13       29.85S
WATFORD CITY     N/A     57  52  82 NE5       29.81F
BISMARCK       PTSUNNY   71  47  42 SW9       29.79F
GRAND FORKS    CLOUDY    69  57  65 W13       29.74F
FARGO            N/A     73  55  53 W17G24    29.79S
BUFFALO SD       N/A     67  41  38 W16       29.80F
RAPID CITY     PTSUNNY   69  45  41 VRB7      29.87F
$$

REGIONAL REPORTS...WYOMING/IDAHO/WASHINGTON

CITY           SKY/WX    TMP DP  RH WIND       PRES   REMARKS
GILLETTE         N/A     64  37  36 NW10G22   29.93F
SHERIDAN       PTSUNNY   63  44  50 NW12      29.92F
BUFFALO WY     CLOUDY    60  41  49 N13G22    29.96S
CODY           CLOUDY    55  41  58 N20       29.98R
YELLOWSTONE LA   N/A     44  32  62 W8        30.09R
IDAHO FALLS      N/A     62  41  46 N8        30.01F
SALMON         PTSUNNY   64  37  36 CALM      29.96F
BOISE            N/A     73  39  29 NW17      29.99F
SPOKANE        PTSUNNY   63  41  44 S13       30.01F
$$

REGIONAL REPORTS...ALBERTA

CITY           SKY/WX    TMP DP  RH WIND       PRES   REMARKS
EDMONTON       PTSUNNY   66  48  52 NE3       29.84F
CALGARY        PTSUNNY   64  43  45 S7        29.86F
LETHBRIDGE     MOSUNNY   64  45  48 S12G30    29.88F
MEDICINE HAT   PTSUNNY   68  46  45 VRB5      29.88F
WATERTON GATE    N/A     54  43  66 SW16G25     N/A
CARDSTON         N/A     54  48  82 S8          N/A
ONEFOUR          N/A     63  46  55 E9          N/A
$$

REGIONAL REPORTS...SASKATCHEWAN

CITY           SKY/WX    TMP DP  RH WIND       PRES   REMARKS
SWIFT CURRENT  PTSUNNY   61  52  72 NE9       29.90S
REGINA         LGT RAIN  59  54  82 NE7       29.88F
SASKATOON      PTSUNNY   72  48  43 S8G18     29.88F
CYPRESS HILLS    N/A     57  46  67 NE7         N/A
VAL MARIE        N/A     59  52  77 N15         N/A
ROCKGLEN         N/A     54  52  94 NE6         N/A
ASSINIBOIA       N/A     64  50  59 W5          N/A
$$




USA.gov is the U.S. government's official web portal to all federal, state and local government web resources and services.